Weather in Ayutthaya

Thailand     14°19′37″N   100°36′28″E
temp.,
°C
wind,
m/s
gust,
m/s
humid.,
%
clouds,
%
prec.,
mm/h
press.,
hPa
HPBL,
m
19 april, mon
mon1901:00+28s237278 1.6 1009162
04:00+27se2379100 3.7 1008114
07:00+27se3478100 3.7 1009231
10:00+32s23565 0.0 10101164
13:00+36s333870 0.0 10062497
16:00+36se443873 0.1 1004880
19:00+31ssw7105497 0.2 1006731
22:00+27wsw3577100 6.6 1008324
20 april, tue
tue2001:00+27ne2180100 6.9 1008204
04:00+27se1180100 0.0 1007130
07:00+27sw237481 0.0 1009237
10:00+32wsw225555 0.0 10101113
13:00+35wnw224293 0.0 10072068
16:00+36n2235100 0.0 10042284
19:00+31se58546 0.0 1006288
22:00+31s485650 0.0 1009380
21 april, wed
wed2101:00+29s476539 0.1 1008360
04:00+28sse247430 0.6 1007103
07:00+29sse247324 0.6 1009211
10:00+34ssw33506 0.0 10101259
13:00+38sw113678 0.0 10072796
16:00+36e444053 0.3 1004584
19:00+32se485190 0.4 1006293
22:00+31s365993 0.4 1009253
22 april, thu
thu2201:00+30s48625 0.4 1007313
04:00+29ssw24714 0.0 1006155
07:00+29sw35696 0.0 1008250
10:00+35sw444414 0.0 10091378
13:00+38wsw323554 0.0 10062618
16:00+37wsw333665 0.2 10031252
19:00+34ssw36455 0.3 1004160
22:00+30ssw49625 1.3 1007290
23 april, fri
fri2301:00+29ssw486599 1.3 1006290
04:00+28ssw487141 0.0 1005241
07:00+28sw47685 0.0 1007399
10:00+34w444894 0.0 10081056
13:00+38w22364 0.0 10052107
16:00+39wnw122924 0.0 10022850
19:00+35s693946 0.0 1003334
22:00+31ssw610549 0.3 1007502